Regional Weather Roundup
Issued by NWS Sterling, VA

Home | Current Version | Previous Version | Graphics & Text | Print | Product List | Glossary On
Versions: 1 2 3 4 5 6 7 8 9 10 11 12 13 14 15 16 17 18 19 20 21 22 23 24 25 26 27 28 29 30 31 32 33 34 35 36 37 38 39 40 41 42 43 44 45 46 47 48 49 50
000
ASUS41 KLWX 131810
RWRLWX

REGIONAL WEATHER ROUNDUP
NATIONAL WEATHER SERVICE BALTIMORE MD/WASHINGTON DC
100 PM EST SAT FEB 13 2016

Note: "FAIR" indicates few or no clouds below 12,000 feet
with no significant weather and/or obstructions to visibility.
 TC=TEMPERATURE CELSIUS

 * =Non NWS site. Station does not report precipitation (e.g. rain,
    snow, etc.), thunder, or fog.

DCZ001-MDZ009-015-VAZ040>042-051-053>054-131900-
WASHINGTON METRO

CITY           SKY/WX    TMP DP  RH WIND       PRES   REMARKS
WASHINGTON NAT PTSUNNY   21  -4  33 W18G30    30.29F WCI   6
DULLES         PTSUNNY   20  -3  36 NW24G31   30.27F WCI   3
ANDREWS AFB    SUNNY     21  -3  34 NW25G35   30.24S WCI   4
FT BELVOIR     PTSUNNY   21  -7  28 W15G26    30.29F WCI   8
QUANTICO       FAIR      25  -3  29 N18G29    30.31S WCI  11
COLLEGE PARK*  PTSUNNY   23  -4  30 NW18G29   30.27S WCI   9
LEESBURG*      PTSUNNY   23   3  42 NW28G36   30.28F WCI   6
MANASSAS*      MOSUNNY   23   0  36 NW18G35   30.30F WCI   9
GAITHERSBURG*  MOSUNNY   18  -2  41 W18G32    30.27R WCI   2

$$

MDZ006>007-011-014-131900-
BALTIMORE METRO

CITY           SKY/WX    TMP DP  RH WIND       PRES   REMARKS
BWI AIRPORT    PTSUNNY   22  -5  30 NW16G31   30.25R WCI   8
MD SCIENCE CTR   N/A     20  -6  31 MISG      30.26R
MARTIN STATE   PTSUNNY   21  -2  35 W24G37    30.25S WCI   4
ANNAPOLIS      PTSUNNY   22   2  42 NW12G28   30.25S WCI  10
FORT MEADE*    PTSUNNY   21  -4  33 NW14G25   30.28S WCI   8

$$

MDZ012-015-019>023-131900-
MARYLAND EASTERN SHORE

CITY           SKY/WX    TMP DP  RH WIND       PRES   REMARKS
OCEAN CITY     MOSUNNY   25   0  33 NW17G31   30.17R WCI  12
SALISBURY      SUNNY     25  -2  31 W21G35    30.19S WCI  11
BAY BRIDGE AP*   N/A     23   0  36 NW22G30   30.24F WCI   8
CAMBRIDGE*     MOSUNNY   23  -4  30 NW21G26   30.23R WCI   8
EASTON*        MOSUNNY   25   0  33 NW22G29   30.26S WCI  10

$$

MDZ017>025-131900-
SOUTHERN MARYLAND

CITY           SKY/WX    TMP DP  RH WIND       PRES   REMARKS
PATUXENT RIVER MOSUNNY   25  -1  32 NW24G36   30.24S WCI   9
ST INIGOES     SUNNY     26   1  34 W23G36    30.24S WCI  11
LEONARDTOWN*   MOSUNNY   25  -2  30 NW13G23   30.26R WCI  13

$$

MDZ003>005-131900-
NORTH CENTRAL MARYLAND

CITY           SKY/WX    TMP DP  RH WIND       PRES   REMARKS
FREDERICK*     PTSUNNY   18   1  49 NW16G24   30.30S WCI   3
HAGERSTOWN APT CLOUDY    17  -2  43 W25G33    30.24S WCI  -1
WESTMINSTER*   PTSUNNY   16   3  57 W22G28    30.20R WCI  -2

$$

MDZ501>502-131900-
WESTERN MARYLAND

CITY           SKY/WX    TMP DP  RH WIND       PRES   REMARKS
OAKLAND*       CLOUDY     3  -9  55 W12G30    30.10S HAZE    WCI -13
CUMBERLAND*    MOSUNNY   18  -6  35 NW9G26    30.33F WCI   6

$$

VAZ025>031-131900-
SHENANDOAH VALLEY

CITY           SKY/WX    TMP DP  RH WIND       PRES   REMARKS
WINCHESTER*    CLOUDY    19  -4  35 W21G32    30.27R WCI   3
FRONT ROYAL*   FAIR      19  -4  35 NW16G24   30.25F WCI   5
LURAY*         FAIR      19  -6  32 NW18G26   30.26S WCI   4
NEW MARKET*    FAIR      19  -8  30 NW14G24   30.26R WCI   6
STAUNTON*      FAIR      25  -7  24 NW20G29   30.24F WCI  11
WAYNESBORO*    FAIR      21 -13  22 NW15G28   30.19F WCI   7

$$

WVZ021-048>050-054>055-131900-
EASTERN WEST VIRGINIA PANHANDLE

CITY           SKY/WX    TMP DP  RH WIND       PRES   REMARKS
MARTINSBURG    CLOUDY    18  -2  41 W22G31    30.28S WCI   1
PETERSBURG*    CLOUDY    16  -3  43 NW20G30   30.31S WCI  -1

$$

VAZ036>039-050-131900-
CENTRAL FOOTHILLS

CITY           SKY/WX    TMP DP  RH WIND       PRES   REMARKS
CHARLOTTESVILL FAIR      24  -8  24 NW12G24   30.26F WCI  13
CULPEPER*      PTSUNNY   23  -4  30 W21       30.29S WCI   8
ORANGE*        FAIR      27   0  31 W10G21    30.28R WCI  17
GORDONSVILLE*  FAIR      26  -4  27 W10G22    30.26S WCI  15
WARRENTON*     PTSUNNY   26   3  36 NW14      30.27S WCI  14

$$

VAZ055>057-131900-
NORTH AND CENTRAL PIEDMONT

CITY           SKY/WX    TMP DP  RH WIND       PRES   REMARKS
FREDERICKSBRG* FAIR      26  -1  31 W23G30    30.26F WCI  11
STAFFORD*      FAIR      25  -4  27 NW17G29   30.31F WCI  12

$$

NCZ024-NYZ072-PAZ021-071-VAZ022-071-131900-
OTHER REGIONAL OBSERVATIONS

CITY           SKY/WX    TMP DP  RH WIND       PRES   REMARKS
NEW YORK CITY  PTSUNNY   18 -11  27 NW21G33   30.07R WCI   1
PHILADELPHIA   PTSUNNY   22  -6  29 W29G37    30.17R WCI   4
PITTSBURGH     LGT SNOW  10  -1  61 NW20      30.32F WCI  -9
ROANOKE        FAIR      22  -4  32 NW26G36   30.30F WCI   5
RICHMOND       PTSUNNY   27  -2  28 NW17G28   30.26F WCI  14
RALEIGH        MOSUNNY   32   0  25 NW9G21    30.31F WCI  24

$$

ANZ530>537-131900-
MARINE OBSERVATIONS

STATION/POSITION TIME  TEMP    WIND        PRES
                       AIR SEA DIR/SP/G
                 (UTC) (F)     (DEG/KT/KT) (MB)
THOMAS PT LIGHT  1800   19 36  310/ 24/ 29 1024.4F
BALT KEY BRIDGE  1700   19     270/ 26/ 30 1023.3R
COVE POINT       1700   21     330/ 17/ 26 1024.8R
LEWISETTA        1700   24 36  340/ 14/ 18 1024.1F
SOLOMONS ISLAND  1700   23 38  320/ 14/ 22   N/A
PINEY POINT      1700          330/ 28/ 34   N/A

$$




USA.gov is the U.S. government's official web portal to all federal, state and local government web resources and services.